Regional Weather Roundup
Issued by NWS

Home | Current Version | Previous Version | Graphics & Text | Print | Product List | Glossary On
Versions: 1 2 3 4 5 6 7 8 9 10 11 12 13 14 15 16 17 18 19 20 21 22 23 24 25 26 27 28 29 30 31 32 33 34 35 36 37 38 39 40 41 42 43 44 45 46 47 48 49 50
000
ASUS45 KSLC 280910
RWRUT

UTAH REGIONAL WEATHER ROUNDUP
NATIONAL WEATHER SERVICE SALT LAKE CITY UT
200 AM MST FRI NOV 28 2014

UTZ001>011-023>025-281000-

NORTHERN UTAH

CITY           SKY/WX    TMP DP  RH WIND       PRES   REMARKS
BRIGHAM CITY   MOCLDY    37  30  75 NW6       30.09S WCI  32
HILL AFB       MOCLDY    45  24  43 E8        30.09F
LOGAN          CLEAR     30  27  88 CALM      30.08F
OGDEN          MOCLDY    42  27  55 S9        30.08F
PROVO AIRPORT  MOCLDY    34  28  80 CALM      30.14F
SALT LAKE CITY MOCLDY    44  25  47 E8        30.07F
VERNAL         PTCLDY    30  22  72 W7        30.19F WCI  23
WENDOVER       CLOUDY    34  25  69 CALM      30.08F
HEBER CITY     MOCLDY    27  23  86 CALM      30.16F
WEST JORDAN    CLEAR     50  28  43 S15       30.09F

$$

UTZ012>022-026-027-281000-

SOUTHERN/CENTRAL UTAH

CITY           SKY/WX    TMP DP  RH WIND       PRES   REMARKS
BLANDING       MOCLDY    35  20  54 NE6       30.37S WCI  29
BRYCE CANYON   PTCLDY    18  12  77 W5        30.32F WCI  11
CEDAR CITY     PTCLDY    36  12  37 SW5       30.21S WCI  32
DELTA          CLOUDY    42  21  42 S9        30.14F
MILFORD        MOCLDY    37  16  42 S12       30.17F WCI  29
MOAB/CYNLANDS  CLEAR     27  18  69 W5        30.24F WCI  22
PRICE          MOCLDY    31  21  66 N8        30.25S WCI  23
ST GEORGE      PTSUNNY   37  16  41 S3        30.21S
KANAB          PTCLDY    32  14  47 N7        30.28F WCI  26

$$

REGIONAL REPORTS     COLORADO/ARIZONA

CITY           SKY/WX    TMP DP  RH WIND       PRES   REMARKS
CRAIG, CO      PTCLDY    26  23  88 CALM      30.20F
GRAND JUNCTION PTCLDY    27  22  81 E5        30.26S WCI  22
RIFLE          CLOUDY    31  27  85 CALM      30.28S
MONTROSE       PTCLDY    28  21  75 SE6       30.28F WCI  22
CORTEZ         CLEAR     24  18  77 NE8       30.31F WCI  15
PAGE, AZ       MOCLDY    39  17  41 CALM      30.25F
GRAND CANYON   PTCLDY    18   3  52 CALM      30.32S
KINGMAN        CLEAR     38  13  35 SW3       30.16F
FLAGSTAFF      PTCLDY    26  10  50 CALM      30.33F

$$

REGIONAL REPORTS    NEVADA/IDAHO/WYOMING

CITY           SKY/WX    TMP DP  RH WIND       PRES   REMARKS
LAS VEGAS, NV  PTCLDY    47  21  35 S10       30.09F
ELY            MOCLDY    32  13  45 SE6       30.21F WCI  26
ELKO           PTCLDY    34  27  75 NE3       30.10F
POCATELLO, ID  CLEAR     42  28  57 NW7       30.00F
BURLEY         CLOUDY    52  25  35 SW12      29.98F
EVANSTON, WY   PTCLDY    40  16  37 SW10      30.15F WCI  33
ROCK SPRINGS   MOCLDY    38  19  46 W12       30.12S WCI  30

$$



USA.gov is the U.S. government's official web portal to all federal, state and local government web resources and services.